Location: Medlow Airstrip Trail, Medlow Bath NSW 2780, Australia
(33.6682°S, 150.3233°E)
Time: 18:56:15
(UTC+10:00)

Tiros 1 despin weight - Visible Passes

Search period start: 16 September 2019 00:00
Search period end: 26 September 2019 00:00
Orbit: 595 x 642 km, 48.2° (Epoch: 15 September)

Date Brightness Start Highest point End Pass type
(mag) Time Alt. Az. Time Alt. Az. Time Alt. Az.
16 Sep ? 02:52:12 12° SSE 02:52:12 12° SSE 02:52:32 10° SE visible
16 Sep ? 04:29:15 11° SSW 04:31:17 14° S 04:33:47 10° SSE visible
17 Sep ? 03:07:57 14° SSE 03:07:57 14° SSE 03:08:53 10° SSE visible
17 Sep ? 04:46:08 10° SSW 04:48:31 14° S 04:50:55 10° SSE visible
18 Sep ? 03:23:41 14° S 03:23:41 14° S 03:25:22 10° SSE visible
18 Sep ? 05:02:56 10° SSW 05:05:44 15° S 05:08:33 10° SE visible
19 Sep ? 03:39:26 13° S 03:39:49 14° S 03:42:11 10° SSE visible
19 Sep ? 05:19:23 10° SSW 05:22:52 20° SSE 05:26:20 10° ESE visible
20 Sep ? 03:55:12 12° SSW 03:57:03 14° S 03:59:33 10° SE visible
21 Sep ? 04:11:10 10° SSW 04:14:14 17° SSE 04:17:18 10° SE visible
22 Sep ? 02:49:46 12° SSE 02:49:46 12° SSE 02:50:40 10° SSE visible
22 Sep ? 04:27:34 10° SSW 04:31:19 23° SSE 04:35:04 10° ESE visible
23 Sep ? 03:05:41 15° SSE 03:05:41 15° SSE 03:08:14 10° SE visible
23 Sep ? 04:43:55 10° SW 04:48:15 35° SSE 04:52:34 10° E visible
24 Sep ? 03:21:41 18° S 03:22:42 19° SSE 03:26:03 10° ESE visible
24 Sep ? 05:00:20 10° SW 05:05:01 62° SE 05:09:41 10° ENE visible
25 Sep ? 03:37:48 20° SSW 03:39:43 27° SSE 03:43:44 10° E visible
25 Sep ? 05:16:55 10° WSW 05:21:37 68° NW 05:26:18 10° NE visible
